Hourly Data Report for September 01, 2017

All times are specified in Local Standard Time (LST). Add 1 hour to adjust for Daylight Saving Time where and when it is observed.

TORONTO INTL A
ONTARIO

43°40'36.000" N
79°37'50.000" W
173.40 m
6158731
71624
YYZ

Download Data

Hourly Data (September 2017)
Hourly Data Report for September 1, 2017
Temp Definition
°C
Dew Point Temp Definition
°C
Rel Hum Definition
%
Wind Dir Definition
10's deg

Wind Spd Definition
km/h
Visibility Definition
km
Stn Press Definition
kPa
Hmdx Definition


Wind Chill Definition


Weather Definition


TIME
00:00 Legend Double Dagger 10.6 4.3 65 35 11 24.1 100.22     LegendNANA
01:00 Legend Double Dagger 9.8 4.6 70 34 13 24.1 100.24     Clear
02:00 Legend Double Dagger 9.2 4.7 73 34 12 24.1 100.26     LegendNANA
03:00 Legend Double Dagger 9.0 4.5 73 34 15 24.1 100.28     LegendNANA
04:00 Legend Double Dagger 8.2 4.7 79 35 14 24.1 100.31     Clear
05:00 Legend Double Dagger 7.8 4.8 81 36 17 24.1 100.33     LegendNANA
06:00 Legend Double Dagger 8.1 4.8 80 1 16 24.1 100.36     LegendNANA
07:00 Legend Double Dagger 9.1 5.3 77 34 18 24.1 100.43     Mostly Cloudy
08:00 Legend Double Dagger 10.7 5.6 71 35 15 24.1 100.44     LegendNANA
09:00 Legend Double Dagger 12.7 5.4 61 1 10 24.1 100.47     LegendNANA
10:00 Legend Double Dagger 14.6 5.3 53 1 14 24.1 100.43     Mostly Cloudy
11:00 Legend Double Dagger 14.5 5.4 54 3 17 24.1 100.40     LegendNANA
12:00 Legend Double Dagger 15.4 4.4 48 35 10 24.1 100.33     LegendNANA
13:00 Legend Double Dagger 16.9 4.4 43 3 13 24.1 100.30     Mainly Clear
14:00 Legend Double Dagger 17.0 3.5 40 35 9 24.1 100.26     LegendNANA
15:00 Legend Double Dagger 17.8 3.8 39 7 10 24.1 100.21     LegendNANA
16:00 Legend Double Dagger 16.6 6.8 52 14 9 24.1 100.14     Mostly Cloudy
17:00 Legend Double Dagger 16.6 6.3 50 14 11 24.1 100.13     LegendNANA
18:00 Legend Double Dagger 15.1 7.2 59 15 10 24.1 100.10     LegendNANA
19:00 Legend Double Dagger 14.1 7.2 63 15 7 24.1 100.10     Mostly Cloudy
20:00 Legend Double Dagger 13.7 7.1 64 16 7 24.1 100.17     LegendNANA
21:00 Legend Double Dagger 13.1 6.5 64 30 7 24.1 100.18     LegendNANA
22:00 Legend Double Dagger 12.8 6.7 66 36 14 24.1 100.20     Mostly Cloudy
23:00 Legend Double Dagger 11.7 6.5 71 1 10 24.1 100.19     LegendNANA

Notes on Data Quality.

Legend

  • E = Estimated
  • M = Missing
  • NA = Not Available
  • ‡ = Partner data that is not subject to review by the National Climate Archives
Date modified: